Regional Weather Roundup
Issued by NWS

Current Version | Previous Version | Text Only | Print | Product List | Glossary On
Versions: 1 2 3 4 5 6 7 8 9 10 11 12 13 14 15 16 17 18 19 20 21 22 23 24 25 26 27 28 29 30 31 32 33 34 35 36 37 38 39 40 41 42 43 44 45 46 47 48 49 50
000
ASUS45 KABQ 170401
RWRNM
NEW MEXICO REGIONAL WEATHER ROUNDUP
NATIONAL WEATHER SERVICE ALBUQUERQUE NM
900 PM MST TUE JAN 16 2018

NOTE: "FAIR" MEANS FEW OR NO CLOUDS BELOW 12,000 FEET AGL WITH NO
       SIGNIFICANT WEATHER OR OBSTRUCTIONS TO VISION.

      THIS PRODUCT IS RELEASED AS TWO VERSIONS.  ONE VERSION NEAR
      THE TOP OF THE HOUR CONTAINING PRELIMINARY DATA FROM ALBUQUERQUE
      AND OTHER STATIONS.  A FINAL VERSION WITH ADDITIONAL DATA IS
      ISSUED ABOUT 10 MINUTES AFTER THE HOUR.

NMZ501-503-504-510>518-170500-
NORTHWEST PLATEAU/NORTHCENTRAL MOUNTAINS

CITY           SKY/WX    TMP DP  RH WIND       PRES   REMARKS
FARMINGTON     FAIR      24  15  68 N6        30.33R WCI  17
LOS ALAMOS     FAIR      24  15  68 SW6       30.36R WCI  17
SANTA FE       FAIR      17  10  74 N5        30.37R WCI  10
TAOS           FAIR      13   7  77 SE7       30.38R WCI   3
ANGEL FIRE     FAIR      10   6  84 CALM      30.33R

$$
NMZ402-403-502-505>509-170500-
WESTCENTRAL MOUNTAINS/SOUTHWEST MOUNTAINS

CITY           SKY/WX    TMP DP  RH WIND       PRES   REMARKS
GALLUP         FAIR      26  16  65 CALM      30.34R
GRANTS         FAIR      23  14  68 S10       30.37S WCI  12
SILVER CITY    FAIR      26   8  47 SE3       30.39R

$$
NMZ407-409-411-412-170500-
SOUTHERN DESERTS

CITY           SKY/WX    TMP DP  RH WIND       PRES   REMARKS
DEMING         FAIR      26   9  48 NE8       30.42R WCI  18
LAS CRUCES     FAIR      28   7  42 SE5       30.43S WCI  23
HOLLOMAN AFB   FAIR      28   3  34 S12       30.48R WCI  18
ALAMOGORDO     FAIR      25   1  36 CALM      30.46R
T OR C         FAIR      31   9  39 SE6       30.40R WCI  25

$$
NMZ519>523-170500-
CENTRAL VALLEYS/CENTRAL HIGHLANDS

CITY           SKY/WX    TMP DP  RH WIND       PRES   REMARKS
ALBUQUERQUE    FAIR      28  16  60 CALM      30.40R
DOUBLE EAGLE   CLEAR     16   7  67 NW3       30.40R
MORIARTY ARPT  FAIR      18   7  62 S3        30.40R
CLINES CORNERS FAIR      16   4  59 S5        30.36R WCI   9
BELEN          FAIR      23  11  61 NE5       30.40S WCI  17
SOCORRO        FAIR      26  10  50 S6        30.41R WCI  19

$$
NMZ524>526-539-540-170500-
SOUTHCENTRAL MOUNTAINS

CITY           SKY/WX    TMP DP  RH WIND       PRES   REMARKS
RUIDOSO        FAIR      16   0  48 S5        30.40R WCI   9

$$
NMZ527>531-170500-
NORTHEAST HIGHLANDS/NORTHEAST PLAINS

CITY           SKY/WX    TMP DP  RH WIND       PRES   REMARKS
LAS VEGAS      FAIR      11   6  81 S9        30.35S WCI  -2
RATON          FAIR      14   9  80 N8        30.35S WCI   3
CLAYTON        FAIR      16   8  71 SW7       30.39R WCI   6

$$
NMZ532>537-170500-
EASTCENTRAL PLAINS

CITY           SKY/WX    TMP DP  RH WIND       PRES   REMARKS
SANTA ROSA     FAIR      22   5  49 S7        30.44S WCI  13
TUCUMCARI      FAIR      23   8  52 SW10      30.43R WCI  12
CANNON AFB     FAIR      18   4  53 S10       30.49S WCI   7
CLOVIS AIRPORT FAIR      11   1  64 SW8       30.49S WCI  -1

$$
NMZ028-029-538-170500-
SOUTHEAST PLAINS

CITY           SKY/WX    TMP DP  RH WIND       PRES   REMARKS
ROSWELL        FAIR      21   1  41 S8        30.52R WCI  11
ARTESIA        FAIR      19  -2  38 S7        30.55R WCI  10
CARLSBAD       FAIR      25   2  37 S8        30.55R WCI  16
HOBBS          CLOUDY    18  -2  41 S8        30.55R WCI   7


$$




USA.gov is the U.S. government's official web portal to all federal, state and local government web resources and services.